Regional Weather Roundup
Issued by NWS Green Bay, WI

Home | Current Version | Previous Version | Graphics & Text | Print | Product List | Glossary Off
Versions: 1 2 3 4 5 6 7 8 9 10 11 12 13 14 15 16 17 18 19 20 21 22 23 24 25 26 27 28 29 30 31 32 33 34 35 36 37 38 39 40 41 42 43 44 45 46 47 48 49 50

000
ASUS43 KGRB 171811
RWRGRB

NORTH-CENTRAL AND NORTHEAST WISCONSIN REGIONAL WEATHER ROUNDUP
NATIONAL WEATHER SERVICE GREEN BAY WI
1200 PM CST SUN DEC 17 2017

WIZ005-009-010>012-018-019-171900-
NORTH CENTRAL WISCONSIN

CITY           SKY/WX    TMP DP  RH WIND       PRES   REMARKS
IRONWOOD       CLOUDY    26  22  84 S10G16    30.04F
MANITOWISH WTR CLOUDY    23  23 100 S8        30.03F FOG
ARBOR VITAE    CLOUDY    25  23  93 S3        30.03F FOG
EAGLE RIVER    CLOUDY    23  23 100 CALM      30.04F FOG
LAND O LAKES   CLOUDY    24  23  96 S5        30.05F
RHINELANDER    CLOUDY    26  25  96 S3        30.04F
PHILLIPS       CLOUDY    25  24  96 S3        30.04F
ANTIGO         FOG       24  24 100 SE3       30.05F VSB 1
TOMAHAWK       CLOUDY    25  23  93 CALM      30.05F FOG
MERRILL        CLOUDY    26  25  96 SE3       30.06F FOG
$$

WIZ013-073-171900-
NORTHEAST WISCONSIN

CITY           SKY/WX    TMP DP  RH WIND       PRES   REMARKS
IRON MOUNTAIN  CLOUDY    24  20  84 S3        30.06F
MARINETTE      CLOUDY    31  27  85 SE8       30.10F
OCONTO         CLOUDY    30  27  88 E5        30.09F
$$

WIZ017-030-035>037-045-171900-
CENTRAL WISCONSIN

CITY           SKY/WX    TMP DP  RH WIND       PRES   REMARKS
MEDFORD        CLOUDY    26  24  93 S8        30.03F FOG
WAUSAU         CLOUDY    26  25  96 SE3       30.04F FOG
MOSINEE        CLOUDY    27  27 100 E5        30.05F FOG
MARSHFIELD     CLOUDY    26  25  96 SE6       30.03F FOG
WISC RAPIDS    CLOUDY    28  25  88 E5        30.07F FOG
STEVENS POINT  CLOUDY    26  26 100 E5        30.06F FOG
WAUPACA        CLOUDY    30  26  84 CALM      30.07F FOG
SHAWANO        CLOUDY    27  23  85 NE3       30.08F
CLINTONVILLE   NOT AVBL
WAUTOMA        CLOUDY    30  27  88 E3        30.06F
$$

WIZ038-039-048-051-171900-
FOX VALLEY

CITY           SKY/WX    TMP DP  RH WIND       PRES   REMARKS
NWS GREEN BAY  CLOUDY    30  25  81 NE3       30.07F
APPLETON       CLOUDY    28  25  86 NE6       30.05F
OSHKOSH        CLOUDY    31  27  85 E10       30.05F FOG
FOND DU LAC    CLOUDY    31  26  82 E9        30.05F
$$

WIZ022-050-052-171900-
EAST CENTRAL WISCONSIN

CITY           SKY/WX    TMP DP  RH WIND       PRES   REMARKS
EPHRAIM        CLOUDY    30  26  84 SE5       30.08F
WASHINGTON ISL CLOUDY    29  25  85 SE5       30.10F
STURGEON BAY   CLOUDY    31  27  85 SE6       30.09F
MANITOWOC      CLOUDY    31  28  89 E8        30.08F
SHEBOYGAN      CLOUDY    30  29  96 E7        30.06F
$$

LMZ563-521-522-541>543-171900-
LAKESHORE

STATION/POSITION TIME  TEMP    WIND        PRES    VSBY  WAVE
                       AIR SEA DIR/SP/G                  HT/PER
                 (UTC) (F)     (DEG/KT/KT) (MB)    (MI)  (FT/S)
SHEBOYGAN LKSHOR 1800   30     120/  6/  7 1018.8F
KEWAUNEE LKSHORE 1748   31     120/  8/ 10 1017.9F
NORTHPORT PIER   1740   30     150/  6/ 13 1019.6F
SISTER BAY LKSHO 1705   31     160/  8/ 10   N/A
MENOMINEE LKSHOR 1748   30     120/  8/  9 1018.9F
$$




USA.gov is the U.S. government's official web portal to all federal, state and local government web resources and services.